Year,Month,Day,Hour,Minute,Value (Times are PST for temperature in C)
2015,05,15,00,00,13.80
2015,05,15,00,01,13.80
2015,05,15,00,02,13.90
2015,05,15,00,03,13.90
2015,05,15,00,04,13.90
2015,05,15,00,05,13.90
2015,05,15,00,06,13.80
2015,05,15,00,07,13.60
2015,05,15,00,08,13.50
2015,05,15,00,09,13.30
2015,05,15,00,10,13.20
2015,05,15,00,11,13.10
2015,05,15,00,12,13.10
2015,05,15,00,13,13.00
2015,05,15,00,14,13.00
2015,05,15,00,15,13.10
2015,05,15,00,16,13.10
2015,05,15,00,17,13.10
2015,05,15,00,18,13.10
2015,05,15,00,19,13.00
2015,05,15,00,20,13.00
2015,05,15,00,21,13.00
2015,05,15,00,22,12.90
2015,05,15,00,23,12.90
2015,05,15,00,24,12.90
2015,05,15,00,25,13.00
2015,05,15,00,26,13.00
2015,05,15,00,27,13.00
2015,05,15,00,28,12.90
2015,05,15,00,29,12.90
2015,05,15,00,30,12.80
2015,05,15,00,31,12.80
2015,05,15,00,32,12.70
2015,05,15,00,33,12.70
2015,05,15,00,34,12.60
2015,05,15,00,35,12.60
2015,05,15,00,36,12.70
2015,05,15,00,37,12.70
2015,05,15,00,38,12.80
2015,05,15,00,39,12.80
2015,05,15,00,40,12.80
2015,05,15,00,41,12.90
2015,05,15,00,42,12.90
2015,05,15,00,43,12.90
2015,05,15,00,44,12.80
2015,05,15,00,45,12.80
2015,05,15,00,46,12.80
2015,05,15,00,47,12.70
2015,05,15,00,48,12.60
2015,05,15,00,49,12.50
2015,05,15,00,50,12.50
2015,05,15,00,51,12.40
2015,05,15,00,52,12.40
2015,05,15,00,53,12.30
2015,05,15,00,54,12.30
2015,05,15,00,55,12.30
2015,05,15,00,56,12.40
2015,05,15,00,57,12.40
2015,05,15,00,58,12.50
2015,05,15,00,59,12.60
2015,05,15,01,00,12.60
2015,05,15,01,01,12.50
2015,05,15,01,02,12.50
2015,05,15,01,03,12.50
2015,05,15,01,04,12.50
2015,05,15,01,05,12.50
2015,05,15,01,06,12.50
2015,05,15,01,07,12.50
2015,05,15,01,08,12.50
2015,05,15,01,09,12.50
2015,05,15,01,10,12.50
2015,05,15,01,11,12.40
2015,05,15,01,12,12.40
2015,05,15,01,13,12.40
2015,05,15,01,14,12.50
2015,05,15,01,15,12.50
2015,05,15,01,16,12.50
2015,05,15,01,17,12.60
2015,05,15,01,18,12.60
2015,05,15,01,19,12.60
2015,05,15,01,20,12.70
2015,05,15,01,21,12.70
2015,05,15,01,22,12.70
2015,05,15,01,23,12.70
2015,05,15,01,24,12.80
2015,05,15,01,25,12.80
2015,05,15,01,26,12.80
2015,05,15,01,27,12.80
2015,05,15,01,28,12.80
2015,05,15,01,29,12.80
2015,05,15,01,30,12.70
2015,05,15,01,31,12.60
2015,05,15,01,32,12.50
2015,05,15,01,33,12.40
2015,05,15,01,34,12.20
2015,05,15,01,35,12.10
2015,05,15,01,36,12.00
2015,05,15,01,37,11.90
2015,05,15,01,38,11.80
2015,05,15,01,39,11.80
2015,05,15,01,40,11.70
2015,05,15,01,41,11.70
2015,05,15,01,42,11.60
2015,05,15,01,43,11.50
2015,05,15,01,44,11.50
2015,05,15,01,45,11.40
2015,05,15,01,46,11.30
2015,05,15,01,47,11.30
2015,05,15,01,48,11.20
2015,05,15,01,49,11.20
2015,05,15,01,50,11.10
2015,05,15,01,51,11.10
2015,05,15,01,52,11.10
2015,05,15,01,53,11.00
2015,05,15,01,54,11.00
2015,05,15,01,55,10.90
2015,05,15,01,56,10.90
2015,05,15,01,57,10.90
2015,05,15,01,58,10.80
2015,05,15,01,59,10.80
2015,05,15,02,00,10.80
2015,05,15,02,01,10.80
2015,05,15,02,02,10.80
2015,05,15,02,03,10.70
2015,05,15,02,04,10.70
2015,05,15,02,05,10.70
2015,05,15,02,06,10.70
2015,05,15,02,07,10.70
2015,05,15,02,08,10.70
2015,05,15,02,09,10.70
2015,05,15,02,10,10.70
2015,05,15,02,11,10.70
2015,05,15,02,12,10.70
2015,05,15,02,13,10.70
2015,05,15,02,14,10.60
2015,05,15,02,15,10.60
2015,05,15,02,16,10.60
2015,05,15,02,17,10.60
2015,05,15,02,18,10.60
2015,05,15,02,19,10.60
2015,05,15,02,20,10.50
2015,05,15,02,21,10.50
2015,05,15,02,22,10.40
2015,05,15,02,23,10.40
2015,05,15,02,24,10.30
2015,05,15,02,25,10.30
2015,05,15,02,26,10.30
2015,05,15,02,27,10.30
2015,05,15,02,28,10.30
2015,05,15,02,29,10.30
2015,05,15,02,30,10.20
2015,05,15,02,31,10.20
2015,05,15,02,32,10.20
2015,05,15,02,33,10.20
2015,05,15,02,34,10.20
2015,05,15,02,35,10.20
2015,05,15,02,36,10.20
2015,05,15,02,37,10.20
2015,05,15,02,38,10.20
2015,05,15,02,39,10.10
2015,05,15,02,40,10.10
2015,05,15,02,41,10.00
2015,05,15,02,42,10.00
2015,05,15,02,43,9.90
2015,05,15,02,44,9.90
2015,05,15,02,45,9.80
2015,05,15,02,46,9.80
2015,05,15,02,47,9.70
2015,05,15,02,48,9.70
2015,05,15,02,49,9.70
2015,05,15,02,50,9.70
2015,05,15,02,51,9.70
2015,05,15,02,52,9.70
2015,05,15,02,53,9.70
2015,05,15,02,54,9.70
2015,05,15,02,55,9.70
2015,05,15,02,56,9.70
2015,05,15,02,57,9.60
2015,05,15,02,58,9.60
2015,05,15,02,59,9.60
2015,05,15,03,00,9.50
2015,05,15,03,01,9.50
2015,05,15,03,02,9.40
2015,05,15,03,03,9.40
2015,05,15,03,04,9.40
2015,05,15,03,05,9.30
2015,05,15,03,06,9.30
2015,05,15,03,07,9.30
2015,05,15,03,08,9.30
2015,05,15,03,09,9.30
2015,05,15,03,10,9.30
2015,05,15,03,11,9.30
2015,05,15,03,12,9.20
2015,05,15,03,13,9.20
2015,05,15,03,14,9.20
2015,05,15,03,15,9.20
2015,05,15,03,16,9.10
2015,05,15,03,17,9.10
2015,05,15,03,18,9.10
2015,05,15,03,19,9.10
2015,05,15,03,20,9.10
2015,05,15,03,21,9.00
2015,05,15,03,22,9.00
2015,05,15,03,23,9.00
2015,05,15,03,24,9.00
2015,05,15,03,25,8.90
2015,05,15,03,26,8.90
2015,05,15,03,27,8.90
2015,05,15,03,28,8.90
2015,05,15,03,29,8.90
2015,05,15,03,30,8.90
2015,05,15,03,31,8.90
2015,05,15,03,32,8.90
2015,05,15,03,33,8.90
2015,05,15,03,34,8.90
2015,05,15,03,35,8.90
2015,05,15,03,36,8.90
2015,05,15,03,37,8.90
2015,05,15,03,38,8.90
2015,05,15,03,39,8.90
2015,05,15,03,40,9.00
2015,05,15,03,41,9.00
2015,05,15,03,42,9.10
2015,05,15,03,43,9.20
2015,05,15,03,44,9.20
2015,05,15,03,45,9.30
2015,05,15,03,46,9.30
2015,05,15,03,47,9.30
2015,05,15,03,48,9.40
2015,05,15,03,49,9.50
2015,05,15,03,50,9.60
2015,05,15,03,51,9.90
2015,05,15,03,52,10.10
2015,05,15,03,53,10.20
2015,05,15,03,54,10.40
2015,05,15,03,55,10.50
2015,05,15,03,56,10.60
2015,05,15,03,57,10.70
2015,05,15,03,58,10.80
2015,05,15,03,59,10.80
2015,05,15,04,00,10.80
2015,05,15,04,01,10.80
2015,05,15,04,02,10.90
2015,05,15,04,03,11.00
2015,05,15,04,04,11.00
2015,05,15,04,05,11.10
2015,05,15,04,06,11.10
2015,05,15,04,07,11.20
2015,05,15,04,08,11.20
2015,05,15,04,09,11.20
2015,05,15,04,10,11.30
2015,05,15,04,11,11.30
2015,05,15,04,12,11.30
2015,05,15,04,13,11.30
2015,05,15,04,14,11.40
2015,05,15,04,15,11.40
2015,05,15,04,16,11.40
2015,05,15,04,17,11.40
2015,05,15,04,18,11.40
2015,05,15,04,19,11.30
2015,05,15,04,20,11.30
2015,05,15,04,21,11.30
2015,05,15,04,22,11.30
2015,05,15,04,23,11.30
2015,05,15,04,24,11.30
2015,05,15,04,25,11.30
2015,05,15,04,26,11.30
2015,05,15,04,27,11.30
2015,05,15,04,28,11.30
2015,05,15,04,29,11.30
2015,05,15,04,30,11.30
2015,05,15,04,31,11.30
2015,05,15,04,32,11.20
2015,05,15,04,33,11.20
2015,05,15,04,34,11.20
2015,05,15,04,35,11.20
2015,05,15,04,36,11.20
2015,05,15,04,37,11.20
2015,05,15,04,38,11.20
2015,05,15,04,39,11.20
2015,05,15,04,40,11.10
2015,05,15,04,41,11.10
2015,05,15,04,42,11.10
2015,05,15,04,43,11.10
2015,05,15,04,44,11.10
2015,05,15,04,45,11.10
2015,05,15,04,46,11.10
2015,05,15,04,47,11.10
2015,05,15,04,48,11.10
2015,05,15,04,49,11.10
2015,05,15,04,50,11.10
2015,05,15,04,51,11.10
2015,05,15,04,52,11.10
2015,05,15,04,53,11.10
2015,05,15,04,54,11.10
2015,05,15,04,55,11.00
2015,05,15,04,56,11.00
2015,05,15,04,57,10.90
2015,05,15,04,58,10.90
2015,05,15,04,59,10.90
2015,05,15,05,00,10.90
2015,05,15,05,01,11.00
2015,05,15,05,02,10.90
2015,05,15,05,03,10.90
2015,05,15,05,04,10.90
2015,05,15,05,05,10.90
2015,05,15,05,06,10.90
2015,05,15,05,07,10.80
2015,05,15,05,08,10.70
2015,05,15,05,09,10.70
2015,05,15,05,10,10.60
2015,05,15,05,11,10.50
2015,05,15,05,12,10.40
2015,05,15,05,13,10.30
2015,05,15,05,14,10.20
2015,05,15,05,15,10.10
2015,05,15,05,16,10.10
2015,05,15,05,17,10.00
2015,05,15,05,18,10.00
2015,05,15,05,19,9.90
2015,05,15,05,20,9.90
2015,05,15,05,21,9.90
2015,05,15,05,22,9.90
2015,05,15,05,23,9.80
2015,05,15,05,24,9.80
2015,05,15,05,25,9.80
2015,05,15,05,26,9.80
2015,05,15,05,27,9.70
2015,05,15,05,28,9.70
2015,05,15,05,29,9.70
2015,05,15,05,30,9.70
2015,05,15,05,31,9.60
2015,05,15,05,32,9.70
2015,05,15,05,33,9.70
2015,05,15,05,34,9.70
2015,05,15,05,35,9.70
2015,05,15,05,36,9.70
2015,05,15,05,37,9.70
2015,05,15,05,38,9.60
2015,05,15,05,39,9.60
2015,05,15,05,40,9.70
2015,05,15,05,41,9.70
2015,05,15,05,42,9.70
2015,05,15,05,43,9.70
2015,05,15,05,44,9.70
2015,05,15,05,45,9.70
2015,05,15,05,46,9.70
2015,05,15,05,47,9.80
2015,05,15,05,48,9.80
2015,05,15,05,49,9.80
2015,05,15,05,50,9.90
2015,05,15,05,51,10.00
2015,05,15,05,52,10.10
2015,05,15,05,53,10.20
2015,05,15,05,54,10.30
2015,05,15,05,55,10.30
2015,05,15,05,56,10.30
2015,05,15,05,57,10.30
2015,05,15,05,58,10.30
2015,05,15,05,59,10.30
2015,05,15,06,00,10.40
2015,05,15,06,01,10.40
2015,05,15,06,02,10.40
2015,05,15,06,03,10.40
2015,05,15,06,04,10.40
2015,05,15,06,05,10.40
2015,05,15,06,06,10.40
2015,05,15,06,07,10.40
2015,05,15,06,08,10.30
2015,05,15,06,09,10.20
2015,05,15,06,10,10.10
2015,05,15,06,11,10.10
2015,05,15,06,12,10.00
2015,05,15,06,13,9.90
2015,05,15,06,14,9.80
2015,05,15,06,15,9.80
2015,05,15,06,16,9.70
2015,05,15,06,17,9.70
2015,05,15,06,18,9.70
2015,05,15,06,19,9.60
2015,05,15,06,20,9.60
2015,05,15,06,21,9.50
2015,05,15,06,22,9.50
2015,05,15,06,23,9.50
2015,05,15,06,24,9.50
2015,05,15,06,25,9.50
2015,05,15,06,26,9.50
2015,05,15,06,27,9.40
2015,05,15,06,28,9.40
2015,05,15,06,29,9.40
2015,05,15,06,30,9.40
2015,05,15,06,31,9.40
2015,05,15,06,32,9.40
2015,05,15,06,33,9.40
2015,05,15,06,34,9.40
2015,05,15,06,35,9.40
2015,05,15,06,36,9.40
2015,05,15,06,37,9.40
2015,05,15,06,38,9.40
2015,05,15,06,39,9.40
2015,05,15,06,40,9.40
2015,05,15,06,41,9.30
2015,05,15,06,42,9.30
2015,05,15,06,43,9.30
2015,05,15,06,44,9.30
2015,05,15,06,45,9.30
2015,05,15,06,46,9.40
2015,05,15,06,47,9.40
2015,05,15,06,48,9.30
2015,05,15,06,49,9.30
2015,05,15,06,50,9.30
2015,05,15,06,51,9.30
2015,05,15,06,52,9.20
2015,05,15,06,53,9.20
2015,05,15,06,54,9.20
2015,05,15,06,55,9.20
2015,05,15,06,56,9.20
2015,05,15,06,57,9.10
2015,05,15,06,58,9.10
2015,05,15,06,59,9.10
2015,05,15,07,00,9.10
2015,05,15,07,01,9.10
2015,05,15,07,02,9.10
2015,05,15,07,03,9.10
2015,05,15,07,04,9.10
2015,05,15,07,05,9.10
2015,05,15,07,06,9.10
2015,05,15,07,07,9.00
2015,05,15,07,08,9.00
2015,05,15,07,09,9.00
2015,05,15,07,10,9.00
2015,05,15,07,11,9.00
2015,05,15,07,12,9.00
2015,05,15,07,13,9.00
2015,05,15,07,14,9.00
2015,05,15,07,15,9.00
2015,05,15,07,16,8.90
2015,05,15,07,17,8.90
2015,05,15,07,18,8.90
2015,05,15,07,19,8.90
2015,05,15,07,20,8.90
2015,05,15,07,21,8.90
2015,05,15,07,22,8.90
2015,05,15,07,23,8.90
2015,05,15,07,24,8.90
2015,05,15,07,25,8.90
2015,05,15,07,26,8.90
2015,05,15,07,27,8.90
2015,05,15,07,28,8.90
2015,05,15,07,29,8.90
2015,05,15,07,30,8.90
2015,05,15,07,31,8.90
2015,05,15,07,32,8.80
2015,05,15,07,33,8.90
2015,05,15,07,34,8.90
2015,05,15,07,35,8.80
2015,05,15,07,36,8.80
2015,05,15,07,37,8.90
2015,05,15,07,38,8.90
2015,05,15,07,39,8.90
2015,05,15,07,40,8.90
2015,05,15,07,41,8.90
2015,05,15,07,42,8.90
2015,05,15,07,43,8.90
2015,05,15,07,44,8.90
2015,05,15,07,45,8.90
2015,05,15,07,46,8.90
2015,05,15,07,47,8.80
2015,05,15,07,48,8.90
2015,05,15,07,49,8.80
2015,05,15,07,50,8.80
2015,05,15,07,51,8.80
2015,05,15,07,52,8.80
2015,05,15,07,53,8.80
2015,05,15,07,54,8.80
2015,05,15,07,55,8.80
2015,05,15,07,56,8.90
2015,05,15,07,57,8.90
2015,05,15,07,58,8.90
2015,05,15,07,59,8.90
2015,05,15,08,00,8.90
2015,05,15,08,01,8.90
2015,05,15,08,02,8.90
2015,05,15,08,03,8.90
2015,05,15,08,04,8.90
2015,05,15,08,05,8.90
2015,05,15,08,06,8.90
2015,05,15,08,07,8.90
2015,05,15,08,08,8.90
2015,05,15,08,09,8.90
2015,05,15,08,10,8.90
2015,05,15,08,11,8.90
2015,05,15,08,12,8.90
2015,05,15,08,13,8.90
2015,05,15,08,14,8.90
2015,05,15,08,15,8.90
2015,05,15,08,16,8.90
2015,05,15,08,17,9.00
2015,05,15,08,18,9.00
2015,05,15,08,19,9.00
2015,05,15,08,20,9.00
2015,05,15,08,21,9.00
2015,05,15,08,22,9.10
2015,05,15,08,23,9.10
2015,05,15,08,24,9.10
2015,05,15,08,25,9.10
2015,05,15,08,26,9.10
2015,05,15,08,27,9.10
2015,05,15,08,28,9.10
2015,05,15,08,29,9.10
2015,05,15,08,30,9.20
2015,05,15,08,31,9.20
2015,05,15,08,32,9.20
2015,05,15,08,33,9.20
2015,05,15,08,34,9.20
2015,05,15,08,35,9.20
2015,05,15,08,36,9.30
2015,05,15,08,37,9.30
2015,05,15,08,38,9.30
2015,05,15,08,39,9.40
2015,05,15,08,40,9.40
2015,05,15,08,41,9.40
2015,05,15,08,42,9.40
2015,05,15,08,43,9.50
2015,05,15,08,44,9.50
2015,05,15,08,45,9.60
2015,05,15,08,46,9.60
2015,05,15,08,47,9.60
2015,05,15,08,48,9.60
2015,05,15,08,49,9.60
2015,05,15,08,50,9.70
2015,05,15,08,51,9.70
2015,05,15,08,52,9.70
2015,05,15,08,53,9.70
2015,05,15,08,54,9.80
2015,05,15,08,55,9.80
2015,05,15,08,56,9.90
2015,05,15,08,57,10.00
2015,05,15,08,58,10.00
2015,05,15,08,59,10.10
2015,05,15,09,00,10.10
2015,05,15,09,01,10.20
2015,05,15,09,02,10.20
2015,05,15,09,03,10.30
2015,05,15,09,04,10.30
2015,05,15,09,05,10.40
2015,05,15,09,06,10.40
2015,05,15,09,07,10.40
2015,05,15,09,08,10.50
2015,05,15,09,09,10.50
2015,05,15,09,10,10.60
2015,05,15,09,11,10.60
2015,05,15,09,12,10.60
2015,05,15,09,13,10.60
2015,05,15,09,14,10.70
2015,05,15,09,15,10.70
2015,05,15,09,16,10.70
2015,05,15,09,17,10.70
2015,05,15,09,18,10.70
2015,05,15,09,19,10.80
2015,05,15,09,20,10.80
2015,05,15,09,21,10.80
2015,05,15,09,22,10.80
2015,05,15,09,23,10.90
2015,05,15,09,24,10.90
2015,05,15,09,25,11.00
2015,05,15,09,26,11.00
2015,05,15,09,27,11.00
2015,05,15,09,28,11.10
2015,05,15,09,29,11.10
2015,05,15,09,30,11.10
2015,05,15,09,31,11.20
2015,05,15,09,32,11.20
2015,05,15,09,33,11.20
2015,05,15,09,34,11.20
2015,05,15,09,35,11.30
2015,05,15,09,36,11.30
2015,05,15,09,37,11.30
2015,05,15,09,38,11.40
2015,05,15,09,39,11.40
2015,05,15,09,40,11.40
2015,05,15,09,41,11.50
2015,05,15,09,42,11.50
2015,05,15,09,43,11.60
2015,05,15,09,44,11.60
2015,05,15,09,45,11.60
2015,05,15,09,46,11.70
2015,05,15,09,47,11.80
2015,05,15,09,48,11.80
2015,05,15,09,49,11.90
2015,05,15,09,50,12.00
2015,05,15,09,51,12.00
2015,05,15,09,52,12.10
2015,05,15,09,53,12.20
2015,05,15,09,54,12.30
2015,05,15,09,55,12.40
2015,05,15,09,56,12.50
2015,05,15,09,57,12.60
2015,05,15,09,58,12.70
2015,05,15,09,59,12.80
2015,05,15,10,00,12.90
2015,05,15,10,01,13.00
2015,05,15,10,02,13.10
2015,05,15,10,03,13.20
2015,05,15,10,04,13.30
2015,05,15,10,05,13.40
2015,05,15,10,06,13.50
2015,05,15,10,07,13.50
2015,05,15,10,08,13.60
2015,05,15,10,09,13.70
2015,05,15,10,10,13.70
2015,05,15,10,11,13.80
2015,05,15,10,12,13.90
2015,05,15,10,13,14.00
2015,05,15,10,14,14.00
2015,05,15,10,15,14.10
2015,05,15,10,16,14.20
2015,05,15,10,17,14.30
2015,05,15,10,18,14.30
2015,05,15,10,19,14.40
2015,05,15,10,20,14.40
2015,05,15,10,21,14.50
2015,05,15,10,22,14.50
2015,05,15,10,23,14.60
2015,05,15,10,24,14.70
2015,05,15,10,25,14.70
2015,05,15,10,26,14.80
2015,05,15,10,27,14.80
2015,05,15,10,28,14.80
2015,05,15,10,29,14.90
2015,05,15,10,30,14.90
2015,05,15,10,31,14.90
2015,05,15,10,32,14.90
2015,05,15,10,33,14.90
2015,05,15,10,34,15.00
2015,05,15,10,35,15.00
2015,05,15,10,36,15.10
2015,05,15,10,37,15.10
2015,05,15,10,38,15.20
2015,05,15,10,39,15.20
2015,05,15,10,40,15.30
2015,05,15,10,41,15.30
2015,05,15,10,42,15.40
2015,05,15,10,43,15.40
2015,05,15,10,44,15.40
2015,05,15,10,45,15.50
2015,05,15,10,46,15.50
2015,05,15,10,47,15.50
2015,05,15,10,48,15.50
2015,05,15,10,49,15.60
2015,05,15,10,50,15.60
2015,05,15,10,51,15.70
2015,05,15,10,52,15.70
2015,05,15,10,53,15.70
2015,05,15,10,54,15.80
2015,05,15,10,55,15.80
2015,05,15,10,56,15.90
2015,05,15,10,57,16.00
2015,05,15,10,58,16.00
2015,05,15,10,59,16.10
2015,05,15,11,00,16.20
2015,05,15,11,01,16.30
2015,05,15,11,02,16.30
2015,05,15,11,03,16.40
2015,05,15,11,04,16.50
2015,05,15,11,05,16.60
2015,05,15,11,06,16.60
2015,05,15,11,07,16.70
2015,05,15,11,08,16.80
2015,05,15,11,09,16.80
2015,05,15,11,10,16.80
2015,05,15,11,11,16.80
2015,05,15,11,12,16.90
2015,05,15,11,13,16.90
2015,05,15,11,14,16.90
2015,05,15,11,15,17.00
2015,05,15,11,16,17.10
2015,05,15,11,17,17.10
2015,05,15,11,18,17.20
2015,05,15,11,19,17.20
2015,05,15,11,20,17.20
2015,05,15,11,21,17.20
2015,05,15,11,22,17.20
2015,05,15,11,23,17.20
2015,05,15,11,24,17.20
2015,05,15,11,25,17.10
2015,05,15,11,26,17.10
2015,05,15,11,27,17.10
2015,05,15,11,28,17.00
2015,05,15,11,29,17.00
2015,05,15,11,30,17.10
2015,05,15,11,31,17.10
2015,05,15,11,32,17.10
2015,05,15,11,33,17.20
2015,05,15,11,34,17.20
2015,05,15,11,35,17.20
2015,05,15,11,36,17.20
2015,05,15,11,37,17.20
2015,05,15,11,38,17.20
2015,05,15,11,39,17.20
2015,05,15,11,40,17.20
2015,05,15,11,41,17.20
2015,05,15,11,42,17.20
2015,05,15,11,43,17.20
2015,05,15,11,44,17.10
2015,05,15,11,45,17.10
2015,05,15,11,46,17.10
2015,05,15,11,47,17.20
2015,05,15,11,48,17.20
2015,05,15,11,49,17.20
2015,05,15,11,50,17.20
2015,05,15,11,51,17.20
2015,05,15,11,52,17.20
2015,05,15,11,53,17.20
2015,05,15,11,54,17.20
2015,05,15,11,55,17.30
2015,05,15,11,56,17.30
2015,05,15,11,57,17.40
2015,05,15,11,58,17.40
2015,05,15,11,59,17.40
2015,05,15,12,00,17.40
2015,05,15,12,01,17.40
2015,05,15,12,02,17.40
2015,05,15,12,03,17.50
2015,05,15,12,04,17.50
2015,05,15,12,05,17.60
2015,05,15,12,06,17.60
2015,05,15,12,07,17.60
2015,05,15,12,08,17.60
2015,05,15,12,09,17.60
2015,05,15,12,10,17.60
2015,05,15,12,11,17.60
2015,05,15,12,12,17.60
2015,05,15,12,13,17.60
2015,05,15,12,14,17.70
2015,05,15,12,15,17.70
2015,05,15,12,16,17.70
2015,05,15,12,17,17.60
2015,05,15,12,18,17.60
2015,05,15,12,19,17.60
2015,05,15,12,20,17.60
2015,05,15,12,21,17.60
2015,05,15,12,22,17.60
2015,05,15,12,23,17.60
2015,05,15,12,24,17.50
2015,05,15,12,25,17.50
2015,05,15,12,26,17.40
2015,05,15,12,27,17.50
2015,05,15,12,28,17.50
2015,05,15,12,29,17.60
2015,05,15,12,30,17.70
2015,05,15,12,31,17.80
2015,05,15,12,32,17.80
2015,05,15,12,33,17.70
2015,05,15,12,34,17.70
2015,05,15,12,35,17.70
2015,05,15,12,36,17.80
2015,05,15,12,37,17.80
2015,05,15,12,38,17.90
2015,05,15,12,39,17.90
2015,05,15,12,40,18.00
2015,05,15,12,41,18.00
2015,05,15,12,42,18.10
2015,05,15,12,43,18.20
2015,05,15,12,44,18.20
2015,05,15,12,45,18.10
2015,05,15,12,46,18.00
2015,05,15,12,47,18.10
2015,05,15,12,48,18.10
2015,05,15,12,49,18.10
2015,05,15,12,50,18.20
2015,05,15,12,51,18.30
2015,05,15,12,52,18.40
2015,05,15,12,53,18.50
2015,05,15,12,54,18.60
2015,05,15,12,55,18.70
2015,05,15,12,56,18.80
2015,05,15,12,57,18.90
2015,05,15,12,58,18.90
2015,05,15,12,59,18.90
2015,05,15,13,00,18.80
2015,05,15,13,01,18.80
2015,05,15,13,02,18.80
2015,05,15,13,03,18.70
2015,05,15,13,04,18.70
2015,05,15,13,05,18.80
2015,05,15,13,06,18.80
2015,05,15,13,07,18.90
2015,05,15,13,08,19.00
2015,05,15,13,09,19.10
2015,05,15,13,10,19.20
2015,05,15,13,11,19.20
2015,05,15,13,12,19.20
2015,05,15,13,13,19.20
2015,05,15,13,14,19.10
2015,05,15,13,15,19.10
2015,05,15,13,16,19.00
2015,05,15,13,17,19.00
2015,05,15,13,18,19.00
2015,05,15,13,19,19.00
2015,05,15,13,20,19.10
2015,05,15,13,21,19.10
2015,05,15,13,22,19.20
2015,05,15,13,23,19.20
2015,05,15,13,24,19.20
2015,05,15,13,25,19.20
2015,05,15,13,26,19.20
2015,05,15,13,27,19.20
2015,05,15,13,28,19.20
2015,05,15,13,29,19.20
2015,05,15,13,30,19.20
2015,05,15,13,31,19.20
2015,05,15,13,32,19.20
2015,05,15,13,33,19.30
2015,05,15,13,34,19.30
2015,05,15,13,35,19.30
2015,05,15,13,36,19.40
2015,05,15,13,37,19.50
2015,05,15,13,38,19.60
2015,05,15,13,39,19.60
2015,05,15,13,40,19.60
2015,05,15,13,41,19.50
2015,05,15,13,42,19.50
2015,05,15,13,43,19.40
2015,05,15,13,44,19.40
2015,05,15,13,45,19.20
2015,05,15,13,46,19.00
2015,05,15,13,47,18.90
2015,05,15,13,48,18.80
2015,05,15,13,49,18.80
2015,05,15,13,50,18.80
2015,05,15,13,51,18.80
2015,05,15,13,52,18.80
2015,05,15,13,53,18.80
2015,05,15,13,54,18.80
2015,05,15,13,55,18.80
2015,05,15,13,56,18.80
2015,05,15,13,57,18.70
2015,05,15,13,58,18.70
2015,05,15,13,59,18.70
2015,05,15,14,00,18.70
2015,05,15,14,01,18.70
2015,05,15,14,02,18.60
2015,05,15,14,03,18.50
2015,05,15,14,04,18.40
2015,05,15,14,05,18.40
2015,05,15,14,06,18.30
2015,05,15,14,07,18.30
2015,05,15,14,08,18.30
2015,05,15,14,09,18.30
2015,05,15,14,10,18.20
2015,05,15,14,11,18.20
2015,05,15,14,12,18.20
2015,05,15,14,13,18.20
2015,05,15,14,14,18.20
2015,05,15,14,15,18.10
2015,05,15,14,16,18.00
2015,05,15,14,17,18.00
2015,05,15,14,18,17.90
2015,05,15,14,19,17.90
2015,05,15,14,20,17.90
2015,05,15,14,21,17.90
2015,05,15,14,22,17.90
2015,05,15,14,23,17.90
2015,05,15,14,24,17.80
2015,05,15,14,25,17.80
2015,05,15,14,26,17.80
2015,05,15,14,27,17.80
2015,05,15,14,28,17.90
2015,05,15,14,29,17.90
2015,05,15,14,30,17.80
2015,05,15,14,31,17.80
2015,05,15,14,32,17.80
2015,05,15,14,33,17.80
2015,05,15,14,34,17.80
2015,05,15,14,35,17.70
2015,05,15,14,36,17.70
2015,05,15,14,37,17.80
2015,05,15,14,38,17.80
2015,05,15,14,39,17.80
2015,05,15,14,40,17.80
2015,05,15,14,41,17.80
2015,05,15,14,42,17.80
2015,05,15,14,43,17.80
2015,05,15,14,44,17.80
2015,05,15,14,45,17.80
2015,05,15,14,46,17.90
2015,05,15,14,47,17.90
2015,05,15,14,48,17.90
2015,05,15,14,49,18.00
2015,05,15,14,50,18.10
2015,05,15,14,51,18.10
2015,05,15,14,52,18.20
2015,05,15,14,53,18.20
2015,05,15,14,54,18.30
2015,05,15,14,55,18.30
2015,05,15,14,56,18.30
2015,05,15,14,57,18.30
2015,05,15,14,58,18.30
2015,05,15,14,59,18.30
2015,05,15,15,00,18.40
2015,05,15,15,01,18.40
2015,05,15,15,02,18.40
2015,05,15,15,03,18.50
2015,05,15,15,04,18.60
2015,05,15,15,05,18.70
2015,05,15,15,06,18.80
2015,05,15,15,07,18.80
2015,05,15,15,08,18.80
2015,05,15,15,09,18.70
2015,05,15,15,10,18.60
2015,05,15,15,11,18.50
2015,05,15,15,12,18.40
2015,05,15,15,13,18.40
2015,05,15,15,14,18.40
2015,05,15,15,15,18.40
2015,05,15,15,16,18.50
2015,05,15,15,17,18.60
2015,05,15,15,18,18.70
2015,05,15,15,19,18.70
2015,05,15,15,20,18.60
2015,05,15,15,21,18.60
2015,05,15,15,22,18.50
2015,05,15,15,23,18.40
2015,05,15,15,24,18.40
2015,05,15,15,25,18.40
2015,05,15,15,26,18.40
2015,05,15,15,27,18.40
2015,05,15,15,28,18.40
2015,05,15,15,29,18.40
2015,05,15,15,30,18.40
2015,05,15,15,31,18.50
2015,05,15,15,32,18.50
2015,05,15,15,33,18.60
2015,05,15,15,34,18.60
2015,05,15,15,35,18.50
2015,05,15,15,36,18.50
2015,05,15,15,37,18.40
2015,05,15,15,38,18.40
2015,05,15,15,39,18.40
2015,05,15,15,40,18.40
2015,05,15,15,41,18.40
2015,05,15,15,42,18.30
2015,05,15,15,43,18.30
2015,05,15,15,44,18.30
2015,05,15,15,45,18.30
2015,05,15,15,46,18.30
2015,05,15,15,47,18.30
2015,05,15,15,48,18.30
2015,05,15,15,49,18.30
2015,05,15,15,50,18.30
2015,05,15,15,51,18.30
2015,05,15,15,52,18.30
2015,05,15,15,53,18.30
2015,05,15,15,54,18.30
2015,05,15,15,55,18.20
2015,05,15,15,56,18.20
2015,05,15,15,57,18.20
2015,05,15,15,58,18.20
2015,05,15,15,59,18.20
2015,05,15,16,00,18.20
2015,05,15,16,01,18.10
2015,05,15,16,02,18.10
2015,05,15,16,03,18.10
2015,05,15,16,04,18.10
2015,05,15,16,05,18.10
2015,05,15,16,06,18.20
2015,05,15,16,07,18.20
2015,05,15,16,08,18.20
2015,05,15,16,09,18.20
2015,05,15,16,10,18.20
2015,05,15,16,11,18.20
2015,05,15,16,12,18.10
2015,05,15,16,13,18.10
2015,05,15,16,14,18.00
2015,05,15,16,15,18.00
2015,05,15,16,16,17.90
2015,05,15,16,17,17.90
2015,05,15,16,18,17.90
2015,05,15,16,19,17.80
2015,05,15,16,20,17.80
2015,05,15,16,21,17.80
2015,05,15,16,22,17.90
2015,05,15,16,23,17.90
2015,05,15,16,24,17.90
2015,05,15,16,25,17.90
2015,05,15,16,26,17.90
2015,05,15,16,27,17.90
2015,05,15,16,28,17.90
2015,05,15,16,29,18.00
2015,05,15,16,30,18.00
2015,05,15,16,31,17.90
2015,05,15,16,32,17.90
2015,05,15,16,33,17.90
2015,05,15,16,34,17.90
2015,05,15,16,35,17.90
2015,05,15,16,36,17.90
2015,05,15,16,37,17.90
2015,05,15,16,38,17.90
2015,05,15,16,39,17.90
2015,05,15,16,40,17.90
2015,05,15,16,41,18.00
2015,05,15,16,42,18.00
2015,05,15,16,43,18.10
2015,05,15,16,44,18.10
2015,05,15,16,45,18.10
2015,05,15,16,46,18.10
2015,05,15,16,47,18.10
2015,05,15,16,48,18.00
2015,05,15,16,49,18.00
2015,05,15,16,50,18.00
2015,05,15,16,51,18.10
2015,05,15,16,52,18.20
2015,05,15,16,53,18.20
2015,05,15,16,54,18.20
2015,05,15,16,55,18.30
2015,05,15,16,56,18.30
2015,05,15,16,57,18.20
2015,05,15,16,58,18.20
2015,05,15,16,59,18.20
2015,05,15,17,00,18.20
2015,05,15,17,01,18.20
2015,05,15,17,02,18.20
2015,05,15,17,03,18.30
2015,05,15,17,04,18.30
2015,05,15,17,05,18.30
2015,05,15,17,06,18.30
2015,05,15,17,07,18.30
2015,05,15,17,08,18.30
2015,05,15,17,09,18.40
2015,05,15,17,10,18.40
2015,05,15,17,11,18.40
2015,05,15,17,12,18.50
2015,05,15,17,13,18.60
2015,05,15,17,14,18.50
2015,05,15,17,15,18.60
2015,05,15,17,16,18.60
2015,05,15,17,17,18.60
2015,05,15,17,18,18.60
2015,05,15,17,19,18.60
2015,05,15,17,20,18.60
2015,05,15,17,21,18.50
2015,05,15,17,22,18.40
2015,05,15,17,23,18.30
2015,05,15,17,24,18.30
2015,05,15,17,25,18.30
2015,05,15,17,26,18.30
2015,05,15,17,27,18.30
2015,05,15,17,28,18.30
2015,05,15,17,29,18.30
2015,05,15,17,30,18.40